Location: D�derode
(51.8092°N, 10.1065°E)
Time: 21:26:43
(UTC+00:00)

Nadezhda 3 Rocket - Pass Details

Date: 01 December 2020
Orbit: 956 x 1000 km, 82.9° (Epoch: 24 January)

Event Time Altitude Azimuth Distance (km) Brightness Sun altitude
Rises 17:22:38 0° 173° (S) 3,709 7.1 -19.2°
Reaches altitude 10° 17:25:11 10° 170° (S) 2,766 6.4 -19.5°
Maximum altitude 17:31:24 59° 93° (E) 1,151 4.0 -20.5°
Drops below altitude 10° 17:37:38 10° 16° (NNE) 2,778 6.1 -21.4°
Sets 17:40:12 0° 13° (NNE) 3,728 6.8 -21.8°
